ARIANE 1 DEB, 25765

Orbit data source: Space-Track

ARIANE 1 DEB, 25765 is space debris in HEO originally from a launch on Mon, 24 Dec 1979 UTC launched from the French Guiana (FRGUI). Debris objects in space refer to the collection of defunct objects orbiting the Earth. Examples of debris include non-operational satellites, rocket bodies, and fragments generated from explosions, collisions, or faulty payload assembly.

Loading next visibility...
Identifier
25765, 1979-104G
Orbit
HEO
Country
Flag of FRFR
Related business
Manufacturer
Unknown
Mission
Spacecraft
Bus & Motor
Unknown
Mass
Unknown
Launch date (UTC)
1979-12-24 (46 years ago)
Launch vehicle
Unknown
Launch site
French Guiana (FRGUI)
Object type
Payload
Rocket body
Debris
Shape & HBR
Unknown shape, 0.3 m
Radar Cross Section
Medium (>0.1 m² and <1 m²)

Expand to show TLE details & history
Last TLE update: 5 days ago

TLE from 5 days ago
0 ARIANE 1 DEB
1 25765U 79104G   26169.11502758  .00000191  00000-0  43691-3 0  9996
2 25765  19.8833 134.7136 5514385 198.8865 127.8338  4.57228118425360
Epoch: 2026-06-18T02:45Z
TLE epoch observation values (Epoch: 2026-06-18T02:45:38.382Z)
Latitude
-0.00002°
Longitude
-173.08535°
Altitude
15,934.929 km
Speed
3.12 km/s
True Right ascension
08h 58m 45s
True Declination
0° 00' 00"
Sunlit
Object was in daylight at epoch
Visualization orbit readout
Latitude
Unknown
Longitude
Unknown
Altitude
Unknown
Speed
Unknown
Apparent Right ascension
Unknown
Apparent Declination
Unknown
Sunlit
N/A
Visualization observer readout
Local Sidereal Time
02:18:49
Azimuth
Unknown
Elevation
Unknown
Doppler factor
Unknown
Orbital elements
Apogee altitude
17,417.493 km
Perigee altitude
501.803 km
Semi-major axis
15,337.785 km
Eccentricity
0.55144
Inclination
19.8833°
RAAN
134.7136°
Arg. of periapsis
198.8865°
True anomaly
161.1329°
Mean anomaly
127.8338°
Eccentric anomaly
145.65772°
Mean motion
1.14261 °/min
Orbital period
315.07 mins
BSTAR
0.00043691
Loading maneuver chart data...
Computing Atmospheric mass density...
Loading historical data...
Loading historical data...
Loading historical data...
Loading historical data...
Loading historical data...
Loading historical data...
Loading historical data...

Documentation

Showing up to 5 results
|